TAM8127 KMCO-SBGR

Flight info

Callsign TAM8127
Flight time N/A
Altitude 33000
Route DDANY3 BORRD DCT PBI DCT TOVAR Y297 URSUS UP406 BILSI UL795 SASUS/N0494F350 UL795 MUBUV/N0488F370 UL795 MUKSA DCT VULIB/N0486F360 DCT EGOLA DCT NEBAL DCT UPONA DCT OBLUG/N0481F370 UZ42 ZARES
Aircraft B77W/H-SDE1E2E3FGHIJ2J3J4J5M1RWXY/LB1D1

Departure

Time 2026-05-08 02:41
Airport Orlando International Airport (KMCO)

Arrival

Time N/A
Airport São Paulo/Guarulhos–Governor André Franco Montoro International Airport (SBGR)
Time Latitude Longitude Altitude Speed Heading
2026-05-08 02:19 28.42677 -81.30020 108 ft 0 kts 234°
2026-05-08 02:26 28.42677 -81.30019 108 ft 0 kts 234°
2026-05-08 02:31 28.42686 -81.30003 107 ft 4 kts 252°
2026-05-08 02:31 28.42688 -81.29974 105 ft 4 kts 279°
2026-05-08 02:31 28.42687 -81.29944 105 ft 4 kts 262°
2026-05-08 02:32 28.42691 -81.29914 105 ft 4 kts 262°
2026-05-08 02:32 28.42693 -81.29889 105 ft 4 kts 250°
2026-05-08 02:32 28.42705 -81.29874 104 ft 4 kts 169°
2026-05-08 02:32 28.42730 -81.29882 104 ft 3 kts 174°
2026-05-08 02:33 28.42735 -81.29883 105 ft 2 kts 179°
2026-05-08 02:33 28.42736 -81.29883 105 ft 0 kts 179°
2026-05-08 02:35 28.42735 -81.29883 105 ft 0 kts 179°
2026-05-08 02:35 28.42723 -81.29882 105 ft 3 kts 179°
2026-05-08 02:35 28.42688 -81.29882 105 ft 7 kts 179°
2026-05-08 02:36 28.42633 -81.29876 108 ft 9 kts 155°
2026-05-08 02:36 28.42592 -81.29815 108 ft 11 kts 131°
2026-05-08 02:36 28.42516 -81.29796 107 ft 13 kts 178°
2026-05-08 02:36 28.42416 -81.29794 107 ft 16 kts 179°
2026-05-08 02:37 28.42297 -81.29792 107 ft 18 kts 179°
2026-05-08 02:37 28.42161 -81.29791 107 ft 21 kts 180°
2026-05-08 02:37 28.42009 -81.29790 107 ft 23 kts 179°
2026-05-08 02:37 28.41842 -81.29788 107 ft 25 kts 179°
2026-05-08 02:38 28.41663 -81.29786 107 ft 26 kts 180°
2026-05-08 02:38 28.41480 -81.29785 107 ft 26 kts 179°
2026-05-08 02:38 28.41298 -81.29783 107 ft 26 kts 180°
2026-05-08 02:38 28.41115 -81.29781 107 ft 26 kts 179°
2026-05-08 02:39 28.40941 -81.29779 107 ft 16 kts 179°
2026-05-08 02:39 28.40851 -81.29775 107 ft 11 kts 165°
2026-05-08 02:39 28.40819 -81.29698 106 ft 12 kts 92°
2026-05-08 02:39 28.40822 -81.29617 103 ft 4 kts 84°
2026-05-08 02:40 28.40828 -81.29583 102 ft 5 kts 64°
2026-05-08 02:40 28.40855 -81.29559 105 ft 5 kts 28°
2026-05-08 02:40 28.40879 -81.29559 103 ft 0 kts 357°
2026-05-08 02:40 28.40891 -81.29559 104 ft 10 kts 357°
2026-05-08 02:41 28.41211 -81.29564 107 ft 85 kts 360°
2026-05-08 02:41 28.42052 -81.29574 107 ft 159 kts 360°
2026-05-08 02:41 28.43338 -81.29603 393 ft 194 kts 355°
2026-05-08 02:41 28.44704 -81.29643 1036 ft 200 kts 355°
2026-05-08 02:42 28.46135 -81.29665 1612 ft 211 kts 356°
2026-05-08 02:42 28.47617 -81.29649 2251 ft 214 kts 358°
2026-05-08 02:42 28.49135 -81.29275 2425 ft 241 kts 30°
2026-05-08 02:42 28.50239 -81.27774 2766 ft 259 kts 67°
2026-05-08 02:43 28.50856 -81.25786 3191 ft 271 kts 68°
2026-05-08 02:43 28.51641 -81.23820 3945 ft 271 kts 63°
2026-05-08 02:43 28.52221 -81.21821 4638 ft 268 kts 90°
2026-05-08 02:43 28.51910 -81.19764 5030 ft 275 kts 105°
2026-05-08 02:44 28.51792 -81.17548 5274 ft 286 kts 82°
2026-05-08 02:44 28.51899 -81.15304 5873 ft 287 kts 101°
2026-05-08 02:44 28.51107 -81.13236 6450 ft 288 kts 123°
2026-05-08 02:44 28.50148 -81.11210 6927 ft 296 kts 113°
2026-05-08 02:45 28.49464 -81.08983 7591 ft 300 kts 107°
2026-05-08 02:45 28.48896 -81.06694 8282 ft 301 kts 106°
2026-05-08 02:45 28.48028 -81.04537 8717 ft 305 kts 132°
2026-05-08 02:45 28.46447 -81.02941 9242 ft 304 kts 144°
2026-05-08 02:46 28.44766 -81.01447 9885 ft 309 kts 144°
2026-05-08 02:46 28.43071 -80.99919 10501 ft 311 kts 144°
2026-05-08 02:46 28.41369 -80.98379 11129 ft 316 kts 144°
2026-05-08 02:46 28.39597 -80.96776 11418 ft 336 kts 144°
2026-05-08 02:47 28.37710 -80.95067 11581 ft 358 kts 144°
2026-05-08 02:47 28.35706 -80.93246 11757 ft 380 kts 144°
2026-05-08 02:47 28.33593 -80.91321 12092 ft 396 kts 144°
2026-05-08 02:47 28.31446 -80.89365 12644 ft 404 kts 143°
2026-05-08 02:48 28.29245 -80.87346 13300 ft 406 kts 141°
2026-05-08 02:48 28.27385 -80.84894 13781 ft 419 kts 120°
2026-05-08 02:48 28.26280 -80.81823 14256 ft 422 kts 110°
2026-05-08 02:48 28.25248 -80.78669 14739 ft 430 kts 112°
2026-05-08 02:49 28.24128 -80.75496 15345 ft 435 kts 113°
2026-05-08 02:49 28.22977 -80.72314 15979 ft 439 kts 113°
2026-05-08 02:49 28.21773 -80.69123 16488 ft 440 kts 118°
2026-05-08 02:49 28.19960 -80.66313 16859 ft 445 kts 140°
2026-05-08 02:50 28.17459 -80.64279 17364 ft 442 kts 151°
2026-05-08 02:50 28.14836 -80.62387 17798 ft 450 kts 150°
2026-05-08 02:50 28.13096 -80.61089 18174 ft 454 kts 149°
2026-05-08 02:50 28.10464 -80.59090 18746 ft 458 kts 149°
2026-05-08 02:51 28.07812 -80.57057 19320 ft 460 kts 149°
2026-05-08 02:51 28.05153 -80.55015 19901 ft 463 kts 149°
2026-05-08 02:51 28.01600 -80.52290 20647 ft 466 kts 149°
2026-05-08 02:51 27.99778 -80.50896 21003 ft 469 kts 149°
2026-05-08 02:52 27.97094 -80.48844 21490 ft 473 kts 149°
2026-05-08 02:52 27.94357 -80.46755 21984 ft 477 kts 149°
2026-05-08 02:52 27.91546 -80.44741 22458 ft 477 kts 157°
2026-05-08 02:52 27.88471 -80.43489 22800 ft 470 kts 171°
2026-05-08 02:53 27.85280 -80.42620 23174 ft 474 kts 172°
2026-05-08 02:53 27.82047 -80.41765 23641 ft 478 kts 172°
2026-05-08 02:53 27.78806 -80.40890 24093 ft 479 kts 171°
2026-05-08 02:53 27.75565 -80.39987 24537 ft 481 kts 171°
2026-05-08 02:54 27.72302 -80.39054 24923 ft 485 kts 171°
2026-05-08 02:54 27.69019 -80.38098 25232 ft 490 kts 171°
2026-05-08 02:54 27.65704 -80.37123 25586 ft 493 kts 170°
2026-05-08 02:54 27.62375 -80.36139 25998 ft 495 kts 170°
2026-05-08 02:55 27.59033 -80.35151 26411 ft 497 kts 170°
2026-05-08 02:55 27.52395 -80.33195 27151 ft 502 kts 171°
2026-05-08 02:55 27.49235 -80.32266 27488 ft 505 kts 171°